D1900 Weather Reports


time (UTC)temp
F
wind
direction
speed
knots
gust
knots
rain 1hr
in
rain 24hr
in
rain mn
in
humidity
%
barometer
mb
20260505122018 60 183 1.7 4.3 0.00 0.00 0.00 75 999.4
20260505121750 60 132 1.7 4.3 0.00 0.00 0.00 77 999.4
20260505121019 59 157 1.7 4.3 0.00 0.00 0.00 77 999.5
20260505120520 59 142 1.7 4.3 0.00 0.00 0.00 77 999.5
20260505120019 59 144 1.7 5.2 0.00 0.00 0.00 77 999.4
20260505115519 59 161 1.7 5.2 0.00 0.00 0.00 79 999.4
20260505115019 58 141 1.7 5.2 0.00 0.00 0.00 79 999.4
20260505114519 58 183 2.6 5.2 0.00 0.00 0.00 79 999.5
20260505114019 58 134 2.6 5.2 0.00 0.00 0.00 79 999.5
20260505113751 57 166 1.7 5.2 0.00 0.00 0.00 80 999.6
20260505113018 57 154 1.7 5.2 0.00 0.00 0.00 80 999.5
20260505112519 56 143 1.7 3.5 0.00 0.00 0.00 81 999.5
20260505112018 56 188 1.7 3.5 0.00 0.00 0.00 81 999.3
20260505111518 56 207 1.7 3.5 0.00 0.00 0.00 82 999.2
20260505111017 55 143 1.7 3.5 0.00 0.00 0.00 82 999.1
20260505110516 55 145 0.9 3.5 0.00 0.00 0.00 83 999.1
20260505102012 54 279 0.9 1.7 0.00 0.00 0.00 84 998.7
20260505101518 54 118 0.9 2.6 0.00 0.00 0.00 83 998.8
20260505101012 54 157 0.9 2.6 0.00 0.00 0.00 83 998.8
20260505100517 54 197 0.9 1.7 0.00 0.00 0.00 83 998.7
20260505095935 54 109 0.9 2.6 0.00 0.00 0.00 83 998.6
20260505095436 54 172 0.9 2.6 0.00 0.00 0.00 83 998.6
20260505094936 54 261 0.9 2.6 0.00 0.00 0.00 83 998.6
20260505094436 54 0 0.9 2.6 0.00 0.00 0.00 83 998.6
20260505093937 54 165 0.9 2.6 0.00 0.00 0.00 82 998.6
20260505093436 54 173 0.9 2.6 0.00 0.00 0.00 82 998.6
20260505093207 54 179 0.9 2.6 0.00 0.00 0.00 81 998.6
20260505092436 54 0 0.9 1.7 0.00 0.00 0.00 82 998.6
20260505091935 54 294 0.9 3.5 0.00 0.00 0.00 81 998.6
20260505091434 53 0 0.9 3.5 0.00 0.00 0.00 82 998.6
20260505090931 53 148 0.9 2.6 0.00 0.00 0.00 82 998.5
20260505090702 53 154 0.9 2.6 0.00 0.00 0.00 82 998.5
20260505085930 53 0 0.9 3.5 0.00 0.00 0.00 82 998.5
20260505085431 53 148 0.9 3.5 0.00 0.00 0.00 82 998.5
20260505084931 53 153 0.9 2.6 0.00 0.00 0.00 82 998.6
20260505084703 53 206 0.9 2.6 0.00 0.00 0.00 82 998.7
20260505084202 53 90 0.9 2.6 0.00 0.00 0.00 81 998.7
20260505083430 53 140 0.9 2.6 0.00 0.00 0.00 81 998.7
20260505082931 53 100 0.9 2.6 0.00 0.00 0.00 81 998.7
20260505082431 52 0 0.9 1.7 0.00 0.00 0.00 82 998.7
20260505081930 52 42 0.9 5.2 0.00 0.00 0.00 82 998.7
20260505081431 52 0 0.9 5.2 0.00 0.00 0.00 82 998.6
20260505080933 52 0 0.0 2.6 0.00 0.00 0.00 82 998.6
20260505080926 52 272 0.0 2.6 0.00 0.00 0.00 82 998.6
20260505080156 51 111 0.0 2.6 0.00 0.00 0.00 82 998.5
20260505075700 52 0 0.0 1.7 0.00 0.00 0.00 81 998.6
20260505074925 52 91 0.9 1.7 0.00 0.00 0.00 81 998.6
20260505074700 51 71 0.9 1.7 0.00 0.00 0.00 81 998.7
20260505073926 51 57 0.0 1.7 0.00 0.00 0.00 81 998.7
20260505073427 52 50 0.0 1.7 0.00 0.00 0.00 80 998.7
20260505072925 52 0 0.0 0.9 0.00 0.00 0.00 80 998.7
20260505072427 52 0 0.0 0.0 0.00 0.00 0.00 78 998.7
20260505071926 53 0 0.0 1.7 0.00 0.00 0.00 78 998.8
20260505071428 53 0 0.0 1.7 0.00 0.00 0.00 78 998.8
20260505070926 53 0 0.9 2.6 0.00 0.00 0.00 77 998.8
20260505070657 53 0 0.9 2.6 0.00 0.00 0.00 76 998.8
20260505065925 53 0 0.0 1.7 0.00 0.00 0.00 77 998.8
20260505065426 54 0 0.9 1.7 0.00 0.00 0.00 77 998.9
20260505064925 54 229 0.9 1.7 0.00 0.00 0.00 76 998.9
20260505064426 54 0 0.9 1.7 0.00 0.00 0.00 76 998.9
20260505063926 54 90 0.9 1.7 0.00 0.00 0.00 75 998.8
20260505063657 54 94 0.9 1.7 0.00 0.00 0.00 75 998.9
20260505062925 54 0 0.9 2.6 0.00 0.00 0.00 75 998.9
20260505062422 54 182 0.9 3.5 0.00 0.00 0.00 75 999.0
20260505061921 54 201 0.9 3.5 0.00 0.00 0.00 75 999.0
20260505061423 54 167 0.9 2.6 0.00 0.00 0.00 75 999.0
20260505061152 54 182 0.0 2.6 0.00 0.00 0.00 75 999.1
20260505060655 55 0 0.0 1.7 0.00 0.00 0.00 75 999.1
20260505055922 55 184 0.0 1.7 0.00 0.00 0.00 74 999.1
20260505055656 55 0 0.0 1.7 0.00 0.00 0.00 73 999.1
20260505054922 55 0 0.9 1.7 0.00 0.00 0.00 73 999.1
20260505054425 55 209 0.9 1.7 0.00 0.00 0.00 72 999.2
20260505053923 56 0 0.9 2.6 0.00 0.00 0.00 72 999.2
20260505053425 56 170 0.9 3.5 0.00 0.00 0.00 71 999.2
20260505052924 56 197 1.7 3.5 0.00 0.00 0.00 71 999.3
20260505052421 56 192 1.7 3.5 0.00 0.00 0.00 70 999.3
20260505051919 56 227 1.7 5.2 0.00 0.00 0.00 71 999.3
20260505051421 56 341 1.7 5.2 0.00 0.00 0.00 71 999.4
20260505051151 56 189 1.7 4.3 0.00 0.00 0.00 71 999.5
20260505050420 55 211 1.7 3.5 0.00 0.00 0.00 71 999.5
20260505041422 55 182 1.7 4.3 0.00 0.00 0.00 73 999.6
20260505040919 55 211 1.7 3.5 0.00 0.00 0.00 73 999.6
20260505040421 55 187 0.0 0.9 0.00 0.00 0.00 74 999.6
20260505035550 55 174 1.7 3.5 0.00 0.14 0.00 73 999.6
20260505035049 55 129 1.7 3.5 0.00 0.14 0.00 73 999.6
20260505034550 55 178 1.7 3.5 0.00 0.14 0.00 73 999.5
20260505034049 55 212 1.7 3.5 0.00 0.14 0.00 73 999.5
20260505033550 55 183 1.7 3.5 0.00 0.14 0.00 73 999.5
20260505033049 55 188 1.7 4.3 0.00 0.14 0.00 73 999.5
20260505032547 55 142 1.7 4.3 0.00 0.14 0.00 73 999.5
20260505032046 55 202 1.7 3.5 0.00 0.14 0.00 73 999.5
20260505031547 55 165 1.7 3.5 0.00 0.14 0.00 73 999.5
20260505031046 55 201 1.7 3.5 0.00 0.14 0.00 73 999.5
20260505030547 55 216 1.7 4.3 0.00 0.14 0.00 73 999.5
20260505030045 55 178 1.7 4.3 0.00 0.14 0.00 72 999.5
20260505025826 55 183 1.7 4.3 0.00 0.14 0.00 72 999.5
20260505025547 55 153 1.7 3.5 0.00 0.14 0.00 72 999.5
20260505024548 56 232 1.7 4.3 0.00 0.14 0.00 72 999.5
20260505024046 56 188 1.7 4.3 0.00 0.14 0.00 71 999.5
20260505023817 56 197 1.7 3.5 0.00 0.14 0.00 71 999.5
20260505023044 56 296 1.7 3.5 0.00 0.14 0.00 71 999.5
20260505022542 56 198 1.7 3.5 0.00 0.14 0.00 71 999.5
20260505022041 56 183 1.7 4.3 0.00 0.14 0.00 70 999.5
20260505021542 56 131 1.7 4.3 0.00 0.14 0.00 70 999.6
20260505021041 56 298 1.7 4.3 0.00 0.14 0.00 69 999.6
20260505020541 56 191 1.7 4.3 0.00 0.14 0.00 69 999.5
20260505020041 56 167 1.7 4.3 0.00 0.14 0.00 68 999.5
20260505015545 56 167 1.7 4.3 0.00 0.14 0.00 68 999.5
20260505015041 57 170 1.7 6.1 0.00 0.14 0.00 67 999.5
20260505014545 57 190 2.6 6.1 0.00 0.14 0.00 66 999.5
20260505014313 57 189 2.6 6.1 0.00 0.14 0.00 66 999.4
20260505013542 57 184 2.6 4.3 0.00 0.14 0.00 65 999.4
20260505013312 57 186 2.6 4.3 0.00 0.14 0.00 65 999.4
20260505012552 57 186 2.6 5.2 0.00 0.14 0.00 64 999.3
20260505012040 58 186 2.6 5.2 0.00 0.14 0.00 64 999.1
20260505011541 58 162 2.6 6.1 0.00 0.14 0.00 63 999.1
20260505011039 58 182 2.6 6.1 0.00 0.14 0.00 62 999.0
20260505010549 58 119 2.6 5.2 0.00 0.14 0.00 62 999.0
20260505010040 58 188 2.6 5.2 0.00 0.14 0.00 61 998.8
20260505005541 58 195 1.7 5.2 0.00 0.14 0.00 61 998.8
20260505005039 59 133 2.6 5.2 0.00 0.14 0.00 60 998.7
20260505004816 59 172 2.6 4.3 0.00 0.14 0.00 59 998.6
20260505004039 59 211 2.6 5.2 0.00 0.14 0.00 59 998.4
20260505003544 59 310 2.6 5.2 0.00 0.14 0.00 59 998.4
20260505003037 60 305 2.6 5.2 0.00 0.14 0.00 59 998.3
20260505002813 60 158 2.6 5.2 0.00 0.14 0.00 58 998.2
20260505002035 60 187 2.6 5.2 0.00 0.14 0.00 57 998.0
20260505001540 60 187 2.6 5.2 0.00 0.14 0.00 57 998.0
20260505001034 60 159 2.6 5.2 0.00 0.14 0.00 56 998.0
20260505000540 61 174 3.5 6.1 0.00 0.14 0.00 55 997.9
20260505000035 61 200 3.5 6.1 0.00 0.14 0.00 55 997.8
20260504235553 61 196 2.6 6.1 0.00 0.14 0.14 53 997.6
20260504235544 61 237 3.5 6.1 0.00 0.14 0.14 55 997.8
20260504234811 61 178 2.6 7.0 0.00 0.14 0.14 54 997.5
20260504234035 62 153 2.6 7.0 0.00 0.14 0.14 54 997.5
20260504233536 62 193 2.6 7.0 0.00 0.14 0.14 53 997.4
20260504233035 62 201 3.5 5.2 0.00 0.14 0.14 52 997.3
20260504232534 63 191 3.5 5.2 0.00 0.14 0.14 51 997.2
20260504232033 63 209 2.6 5.2 0.00 0.14 0.14 51 997.1
20260504231803 64 194 2.6 6.1 0.00 0.14 0.14 48 996.9
20260504231031 64 191 3.5 7.0 0.00 0.14 0.14 48 997.0
20260504230532 64 221 3.5 7.0 0.00 0.14 0.14 48 996.8
20260504225934 64 203 3.5 8.7 0.00 0.14 0.14 48 996.7
20260504225433 65 198 3.5 8.7 0.00 0.14 0.14 48 996.7
20260504224933 65 265 3.5 8.7 0.00 0.14 0.14 48 996.7
20260504224432 65 197 3.5 7.8 0.00 0.14 0.14 46 996.8
20260504224203 66 194 3.5 5.2 0.00 0.14 0.14 47 996.8
20260504223430 66 235 2.6 5.2 0.00 0.14 0.14 46 996.7
20260504222930 66 166 2.6 4.3 0.00 0.14 0.14 46 996.7
20260504222428 66 148 2.6 7.8 0.00 0.14 0.14 46 996.8
20260504221926 66 146 2.6 7.8 0.00 0.14 0.14 45 996.7
20260504221427 66 182 2.6 5.2 0.00 0.14 0.14 45 996.7
20260504220927 66 141 2.6 5.2 0.00 0.14 0.14 46 996.7
20260504220427 66 193 2.6 5.2 0.00 0.14 0.14 45 996.8
20260504215927 66 191 3.5 7.0 0.00 0.14 0.14 45 996.8
20260504215428 66 175 3.5 7.0 0.00 0.14 0.14 45 996.7
20260504214928 66 187 3.5 7.0 0.00 0.14 0.14 44 996.7
20260504214659 67 248 3.5 7.0 0.00 0.14 0.14 43 996.7
20260504214547 67 119 3.5 7.0 0.00 0.14 0.14 43 996.6
20260504213428 67 178 3.5 7.0 0.00 0.14 0.14 42 996.6
20260504212927 67 203 3.5 7.0 0.00 0.14 0.14 42 996.5
20260504212427 68 204 3.5 7.0 0.00 0.14 0.14 42 996.6
20260504211926 68 176 3.5 6.1 0.00 0.14 0.14 42 996.6
20260504211427 68 138 3.5 6.1 0.00 0.14 0.14 41 996.6
20260504210925 68 157 3.5 7.0 0.00 0.14 0.14 41 996.5
20260504210427 68 208 3.5 7.0 0.00 0.14 0.14 40 996.5
20260504205927 69 149 3.5 7.0 0.00 0.14 0.14 39 996.5
20260504205427 69 187 2.6 5.2 0.00 0.14 0.14 39 996.5
20260504204926 69 155 2.6 5.2 0.00 0.14 0.14 39 996.4
20260504204428 69 229 3.5 6.1 0.00 0.14 0.14 39 996.5
20260504203926 69 161 3.5 6.1 0.00 0.14 0.14 39 996.5
20260504203657 69 202 3.5 6.1 0.00 0.14 0.14 39 996.5
20260504202927 69 184 3.5 6.1 0.00 0.14 0.14 38 996.6
20260504202427 69 194 2.6 6.1 0.00 0.14 0.14 38 996.6
20260504201926 69 226 2.6 6.1 0.00 0.14 0.14 37 996.6
20260504201424 70 180 3.5 9.6 0.00 0.14 0.14 36 996.6
20260504200923 70 180 2.6 9.6 0.00 0.14 0.14 34 996.6
20260504200426 70 203 2.6 6.1 0.00 0.14 0.14 34 996.6
20260504195923 70 276 2.6 8.7 0.00 0.14 0.14 34 996.7
20260504195425 70 166 2.6 8.7 0.00 0.14 0.14 34 996.7
20260504195155 70 159 3.5 7.0 0.00 0.14 0.14 34 996.8
20260504194424 70 266 2.6 7.0 0.00 0.14 0.14 34 996.6
20260504193923 70 192 2.6 6.1 0.00 0.14 0.14 34 996.6
20260504193423 70 160 3.5 6.1 0.00 0.14 0.14 33 996.7
20260504192917 70 217 2.6 6.1 0.00 0.14 0.14 32 996.8
20260504192419 70 256 2.6 7.0 0.00 0.14 0.14 33 996.7
20260504191917 70 131 3.5 9.6 0.00 0.14 0.14 35 996.8
20260504191425 69 219 3.5 9.6 0.00 0.14 0.14 34 996.7
20260504190918 69 179 3.5 7.8 0.00 0.14 0.14 33 996.9
20260504190649 69 187 3.5 7.8 0.00 0.14 0.14 35 996.9
20260504185918 68 157 3.5 7.8 0.00 0.14 0.14 35 996.8
20260504185422 69 165 3.5 8.7 0.00 0.14 0.14 35 997.0
20260504184918 69 183 3.5 8.7 0.00 0.14 0.14 33 996.7
20260504184650 69 182 3.5 7.8 0.00 0.14 0.14 35 996.8
20260504183916 69 323 3.5 7.8 0.00 0.14 0.14 35 997.0
20260504183419 69 168 2.6 7.8 0.00 0.14 0.14 34 997.0
20260504182914 69 115 2.6 6.1 0.00 0.14 0.14 35 997.1
20260504182649 69 217 2.6 6.1 0.00 0.14 0.14 33 997.1
20260504181913 69 182 2.6 6.1 0.00 0.14 0.14 36 997.3
20260504181648 69 194 3.5 7.8 0.00 0.14 0.14 33 997.2
20260504180912 69 178 3.5 7.8 0.00 0.14 0.14 34 997.3
20260504180418 69 157 2.6 6.1 0.00 0.14 0.14 33 997.3
20260504175913 69 238 3.5 7.8 0.00 0.14 0.14 34 997.4
20260504175648 68 174 3.5 7.8 0.00 0.14 0.14 34 997.5
20260504174914 68 236 3.5 8.7 0.14 0.14 0.14 34 997.5
20260504174416 68 192 3.5 8.7 0.14 0.14 0.14 34 997.5
20260504173913 68 121 3.5 8.7 0.14 0.14 0.14 35 997.6
20260504173418 68 162 2.6 7.8 0.14 0.14 0.14 35 997.8
20260504173143 67 308 3.5 7.8 0.14 0.14 0.14 35 997.8
20260504172418 67 184 4.3 8.7 0.14 0.14 0.14 33 997.8
20260504171912 67 183 4.3 12.2 0.14 0.14 0.14 33 997.8
20260504171648 68 234 3.5 12.2 0.14 0.14 0.14 33 997.9
20260504170912 68 253 2.6 10.4 0.14 0.14 0.14 33 998.0
20260504170415 68 36 2.6 7.0 0.14 0.14 0.14 33 997.9
20260504170143 68 253 2.6 6.1 0.14 0.14 0.14 34 998.0
20260504160411 65 286 2.6 9.6 0.00 0.00 0.00 36 998.4
20260504150904 63 263 3.5 8.7 0.00 0.00 0.00 37 999.3
20260504150405 63 162 2.6 7.8 0.00 0.00 0.00 37 999.3
20260504140903 62 258 1.7 5.2 0.00 0.00 0.00 40 999.7
20260504140405 61 135 1.7 6.1 0.00 0.00 0.00 42 999.8
20260504130400 57 189 1.7 6.1 0.00 0.00 0.00 47 1000.4